Airfield :
LOGIN :

Register | Disclaimer

   EN    FR    IT 

 










Legend :    VFR   Marginal VFR   IFR   Intensive IFR   Very Intensive IFR
Visi :
Ceiling :
>= 8 km
>= 3000ft
5 to 8 km
1000 to 3000 ft
1500m to 5 km
500 to 1000 ft
800 to 1500m
200 to 500 ft
< 800m
< 200 ft
Symbols :   Thunderstorms  Fog  Heavy snow  Heavy precipitations  Wind > 20 kt
SIGMETs :     Misc.  Thunderstorms  Icing  Turbulence  Mountain Waves  Volcanic Ashes







- Airport Elevation : 156 ft
- IATA code : OMO


LQMO - Mostar

CURRENT METAR :
  • 200730Z 31010KT 270V010 9999 FEW045 09/M05 Q1017

EXPIRED METARs :
  • 200700Z VRB02KT 9999 FEW045 09/M05 Q1017
  • 200630Z 27006KT 190V340 9999 FEW045 08/M06 Q1016
  • 200600Z 32015G26KT 280V360 9999 FEW045 09/M07 Q1016
  • 200530Z VRB10G22KT 9999 FEW045 09/M07 Q1015
  • 200500Z VRB07KT 9999 FEW045 09/M06 Q1015

TAF TAF LQMO
Valid from the 20 at 06:00 until the 21 at 06:00 UTC


200500Z 2006/2106 36012KT CAVOK TX12/2013Z TN02/2105Z
PROB40
TEMPO 2006/2012 01015G30KT
BECMG 2012/2014 VRB02KT
No reported NOTAMs for that airfield.



MET'MAP, your aeronautical weather chart ! - Copyright ORBIFLY December 2007 - Disclaimer

ORBIFLY MET'MAP TEAM :

Programming & Development : Alexandra Zaïnal
Concept & Development : Baudouin d'Aumeries
Co-Development & Prog : Marc-Olivier Méhu
Technical & hardware support : Manuel Goepfert

Contact : metmap@orbifly.com




SOURCES & CREDITS :

   NOAA